Temperature
4 4 4 4 5 4 4 4 4 4 4 5 5 5 6 7 7 8 8 8 8 8 8 7 7 7 7 7 7 7 7 7 7 6 6 6 6 6 5 5 5 5 5 5
3 4 4 4 4 4 4 4 4 4 4 5 6 6 6 7 7 7 7 7 7 7 7 7 7 7 7 7 7 6 6 6 6 6 6 6 5 5 5 5 5 5 4 4
3 3 4 4 4 4 4 3 4 4 5 5 5 5 6 7 7 7 7 7 7 7 7 7 6 6 6 6 6 6 6 6 6 6 5 5 5 5 5 4 4 4 4 4
3 3 4 6 5 4 4 4 3 4 4 4 5 6 7 7 7 7 6 6 6 6 6 6 6 6 6 6 6 5 5 5 5 5 5 5 5 5 4 4 4 4 4 4
2 3 4 5 5 4 4 4 4 4 4 5 5 5 5 7 6 6 6 6 6 6 5 5 5 5 5 5 5 5 5 5 5 5 4 4 4 4 4 4 4 3 3 3
2 3 5 6 5 5 5 5 5 4 4 4 4 3 4 6 6 6 6 5 5 5 5 5 5 4 5 5 5 5 5 4 4 4 4 4 4 4 3 3 3 3 3 3
2 3 4 4 5 5 5 6 5 5 5 4 4 4 5 5 5 5 5 5 5 4 4 4 4 4 4 4 4 4 4 4 4 4 3 3 3 3 3 3 3 3 2 2
2 3 4 4 4 4 5 5 6 5 5 5 5 5 5 5 5 5 4 4 4 4 4 4 4 3 3 4 4 4 3 3 3 3 3 3 3 3 3 2 2 2 2 2
3 4 4 5 5 5 5 5 5 5 5 5 5 5 4 4 4 4 4 4 3 3 3 3 3 3 3 3 3 3 3 3 3 3 3 3 2 2 2 2 2 2 2 2
1 2 3 4 5 5 5 5 5 5 5 4 4 4 4 4 4 3 3 3 3 3 3 3 3 3 2 2 2 2 2 2 2 2 2 2 2 2 2 2 1 1 1 1
0 1 2 4 5 5 5 4 4 4 4 4 4 3 3 3 3 3 3 2 2 2 2 2 2 2 2 2 2 2 2 2 2 2 2 2 2 2 1 1 1 1 1 1
2 3 2 4 5 4 4 4 4 3 3 3 3 3 2 2 2 2 2 2 2 2 2 2 2 2 2 2 1 1 1 2 1 1 1 1 1 1 1 1 1 1 0 0
4 4 4 4 4 3 3 3 3 3 3 2 2 2 2 2 2 2 2 1 2 2 2 2 2 2 1 1 1 1 1 1 1 1 1 1 1 0 1 1 0 0 0 0
3 3 2 3 3 3 2 2 2 2 2 2 1 1 1 1 1 1 1 1 1 1 1 1 1 1 1 1 1 1 1 0 0 0 0 0 0 -0 -0 -0 -0 -0 -0 -0
2 2 2 2 2 2 2 2 1 1 1 1 1 1 1 1 1 1 1 1 1 1 1 1 1 1 1 0 0 0 0 0 -0 -0 -0 -0 -0 -1 -1 -1 -1 -1 -1 -1
2 1 1 1 1 1 1 1 1 1 1 0 0 0 0 0 0 0 0 0 0 0 0 0 0 0 0 -0 -0 -0 -0 -0 -1 -1 -1 -1 -1 -1 -1 -1 -1 -1 -1 -1
0 0 0 0 0 0 0 0 0 0 -0 -0 -0 -0 -0 -0 -0 -0 -0 -0 -0 -0 -0 -0 -0 -0 -0 -1 -1 -1 -1 -1 -1 -1 -1 -1 -1 -1 -1 -1 -2 -2 -1 -1
1 1 0 0 0 -0 -0 -0 -0 -0 -1 -1 -1 -1 -1 -1 -1 -1 -1 -1 -1 -0 -0 -0 -1 -1 -1 -1 -1 -1 -1 -1 -1 -1 -1 -1 -1 -1 -2 -2 -2 -2 -2 -2
0 0 0 -0 -0 -0 -0 -0 -1 -1 -1 -1 -1 -1 -1 -1 -1 -1 -1 -1 -1 -1 -1 -1 -1 -1 -1 -1 -1 -2 -2 -2 -2 -2 -2 -2 -2 -2 -2 -2 -2 -2 -2 -2
0 -0 -0 -0 -0 -1 -1 -1 -1 -1 -1 -1 -1 -1 -1 -1 -1 -1 -1 -1 -1 -1 -1 -2 -2 -2 -2 -2 -2 -2 -2 -2 -2 -2 -2 -2 -2 -2 -2 -2 -2 -2 -2 -2
-0 -0 -1 -1 -1 -1 -1 -1 -1 -1 -1 -1 -2 -2 -2 -2 -2 -2 -2 -2 -1 -2 -2 -2 -2 -2 -2 -2 -2 -3 -3 -3 -3 -3 -3 -3 -3 -3 -3 -3 -3 -3 -3 -3
-1 -1 -1 -1 -1 -1 -1 -1 -2 -2 -2 -2 -2 -2 -2 -2 -2 -2 -2 -2 -2 -2 -2 -2 -2 -2 -3 -3 -3 -3 -3 -3 -3 -3 -3 -3 -3 -3 -3 -3 -3 -3 -3 -3
-1 -1 -1 -2 -2 -2 -2 -2 -2 -2 -2 -2 -2 -2 -2 -2 -2 -3 -2 -2 -2 -3 -3 -3 -3 -3 -3 -3 -3 -3 -3 -3 -3 -3 -3 -3 -3 -3 -3 -3 -3 -3 -3 -3
-2 -2 -2 -2 -2 -2 -2 -2 -2 -2 -2 -2 -2 -2 -3 -3 -3 -3 -3 -3 -3 -3 -3 -3 -3 -3 -3 -3 -4 -3 -3 -3 -4 -4 -4 -4 -4 -4 -4 -4 -4 -4 -4 -4
-2 -2 -2 -2 -3 -2 -2 -2 -2 -3 -3 -3 -3 -3 -3 -3 -3 -3 -3 -3 -3 -3 -3 -3 -3 -4 -4 -4 -4 -4 -4 -4 -4 -4 -4 -4 -4 -4 -4 -4 -4 -4 -4 -4
-3 -3 -3 -3 -3 -3 -3 -3 -3 -3 -3 -3 -3 -3 -3 -3 -3 -3 -3 -3 -4 -4 -4 -4 -4 -4 -4 -4 -4 -4 -4 -4 -4 -4 -4 -4 -4 -4 -4 -4 -4 -4 -4 -4
-3 -3 -3 -3 -3 -3 -3 -3 -3 -3 -3 -3 -3 -3 -3 -3 -4 -4 -4 -4 -4 -4 -4 -4 -4 -4 -4 -4 -4 -4 -4 -4 -4 -4 -4 -4 -4 -4 -4 -4 -4 -4 -4 -4
Wind_Speed
7 7 5 6 8 7 9 9 9 9 9 11 8 6 6 5 4 3 3 4 4 4 4 5 5 5 5 5 5 4 4 5 7 6 6 5 6 6 6 6 6 6 6 6
5 4 6 9 12 12 12 10 11 11 13 10 7 5 5 5 4 4 5 5 5 5 5 6 6 6 6 6 6 4 5 7 6 5 5 6 6 6 6 6 6 6 6 7
5 4 5 9 10 12 8 8 9 12 11 4 4 5 6 6 5 5 6 6 6 5 5 6 6 6 6 6 6 5 6 7 6 6 6 7 6 6 6 7 6 6 7 7
3 3 8 8 3 7 8 8 9 8 6 5 6 5 5 5 5 6 6 6 6 5 5 6 5 6 6 6 6 6 7 7 7 6 7 6 6 7 7 6 6 6 7 7
2 4 9 8 4 6 7 6 7 9 8 6 3 2 4 5 5 6 6 6 6 6 5 5 6 6 6 7 6 7 8 8 7 6 7 7 7 8 7 6 6 6 6 7
4 5 7 6 2 3 3 5 4 6 6 3 2 1 5 3 3 5 5 5 5 5 5 6 7 5 6 7 7 8 9 8 7 6 7 8 8 8 6 5 7 6 6 7
8 8 9 6 2 4 3 5 2 3 4 4 5 6 5 4 4 5 5 6 6 6 6 7 6 5 6 8 9 9 8 8 7 7 7 8 7 6 6 6 6 6 7 7
7 8 10 4 6 6 6 2 1 2 3 4 6 6 6 5 6 6 6 7 6 6 7 7 6 5 7 9 9 8 7 7 7 7 6 6 6 6 5 5 6 6 6 7
10 9 3 3 5 4 2 3 3 3 4 4 5 6 6 6 6 7 7 7 6 7 8 8 6 5 8 9 8 7 7 7 7 7 6 5 6 6 5 5 5 6 6 7
6 8 7 6 5 5 4 5 5 6 6 5 7 8 8 7 7 7 7 7 6 7 8 9 7 7 8 8 8 7 7 8 7 6 6 6 5 5 5 6 6 7 7 7
8 8 6 6 6 6 5 5 6 6 6 7 7 8 7 7 8 7 7 7 6 7 8 9 9 8 8 7 6 7 7 7 7 6 6 6 6 6 7 7 8 8 7 7
9 7 7 7 6 5 6 7 8 7 7 6 6 8 8 8 7 7 7 7 7 7 8 9 8 9 8 7 6 6 7 7 6 5 5 5 6 6 9 11 13 14 13 11
9 6 6 7 5 5 7 8 7 7 7 7 6 7 7 7 6 6 7 7 7 8 8 9 8 9 8 7 6 6 7 7 6 6 6 6 5 6 7 7 9 12 13 13
7 5 6 7 7 7 7 6 5 5 6 6 6 5 5 6 6 6 7 7 7 8 8 8 8 9 8 7 7 7 8 8 8 6 6 6 6 6 6 6 7 6 8 11
8 7 8 6 6 5 5 4 4 5 5 5 4 5 5 6 7 8 8 7 7 7 8 8 9 10 8 7 7 8 8 6 6 6 6 6 6 6 6 7 7 6 5 6
6 6 6 6 7 6 5 5 5 6 5 5 5 5 6 6 7 8 7 6 6 8 9 9 10 10 8 7 8 7 7 11 9 6 6 6 6 6 6 6 6 6 7 6
5 5 5 6 7 6 6 6 6 6 5 5 6 6 6 6 7 8 8 7 7 9 9 10 11 10 8 8 8 7 7 8 10 7 6 6 6 7 7 6 7 7 7 7
8 8 7 6 6 6 6 5 5 6 6 7 6 6 6 6 8 9 9 8 8 9 10 10 10 9 9 8 7 7 7 7 6 6 6 6 7 6 6 7 8 8 7 7
5 6 6 6 6 5 6 6 6 6 7 6 6 7 7 8 9 9 9 8 9 11 10 8 11 9 9 9 9 6 7 7 7 7 6 9 8 6 6 7 7 7 7 6
4 4 5 5 5 5 6 7 7 7 7 6 7 8 9 10 9 9 9 9 9 9 9 11 10 9 9 9 10 6 7 8 8 7 6 6 7 7 7 7 7 7 7 7
5 5 5 6 6 7 7 7 7 8 8 7 8 9 11 11 9 8 8 11 10 9 9 13 9 8 8 9 10 7 7 7 8 7 7 7 7 7 7 7 7 7 7 7
5 5 7 7 7 8 8 7 7 8 9 9 9 10 10 11 11 9 10 10 11 13 9 8 8 11 12 13 8 7 7 8 8 7 7 7 7 7 7 7 7 7 7 7
6 7 8 8 9 9 9 8 8 8 9 10 10 11 11 11 8 8 11 8 7 12 10 8 12 16 18 11 7 7 8 8 8 8 7 7 7 7 7 8 7 7 6 6
8 8 8 8 7 8 11 11 9 8 9 10 11 11 11 10 9 9 10 13 14 15 10 12 18 19 17 8 7 7 8 8 8 7 7 7 7 7 7 7 7 6 6 6
9 9 9 8 9 10 11 11 10 10 10 9 11 11 9 8 9 10 8 10 14 15 10 13 17 18 11 7 7 8 7 8 8 7 7 7 7 7 6 6 6 6 6 6
10 9 9 10 9 9 8 8 8 9 9 10 10 9 8 7 9 9 9 10 12 14 11 9 9 11 8 8 8 8 8 8 9 8 7 7 7 7 6 6 7 6 6 6
9 9 8 8 9 9 8 8 9 10 9 9 11 10 8 8 8 8 9 9 9 9 9 8 8 7 8 8 8 7 7 7 7 7 7 6 6 6 6 7 6 5 5 5
Wind_Direction
253 261 252 246 239 215 211 211 219 239 238 255 254 251 258 260 268 288 297 306 307 302 298 299 298 294 290 286 281 272 265 259 256 255 250 248 250 251 250 248 250 249 251 255
282 264 251 261 248 232 232 230 237 256 267 255 249 244 251 256 256 263 276 286 293 298 298 296 293 290 290 286 281 271 264 263 264 262 257 252 251 249 248 250 251 249 248 252
275 304 320 270 237 213 215 212 204 231 247 247 237 243 244 246 243 246 263 275 282 285 282 282 281 280 281 280 281 271 265 267 267 261 260 256 254 250 249 249 247 248 249 248
272 342 253 248 199 190 209 236 218 232 250 239 240 251 250 236 228 242 258 267 274 276 279 280 278 283 284 284 279 272 269 268 265 260 260 259 250 248 248 245 245 248 251 248
209 257 274 287 240 180 193 257 222 224 246 253 257 323 291 248 226 237 251 259 263 266 272 280 283 285 291 291 284 276 271 268 263 257 258 258 254 251 247 244 248 249 252 248
201 235 251 255 220 165 132 271 236 203 231 228 134 260 273 265 252 263 268 271 275 279 279 280 282 286 289 289 286 278 273 270 266 256 254 256 256 254 248 243 249 253 256 250
221 239 262 256 199 125 186 253 237 198 217 199 200 223 250 275 281 274 277 280 282 284 281 277 281 286 284 285 279 275 276 274 269 260 256 256 258 253 248 247 253 254 257 258
197 223 252 214 145 184 221 258 223 220 224 222 237 260 272 280 282 288 291 289 287 285 285 284 281 278 282 282 280 284 281 276 273 268 264 262 256 257 246 240 250 256 260 268
202 221 254 192 206 232 214 234 246 238 242 237 249 261 267 270 274 280 281 283 284 281 286 288 280 267 275 282 289 291 287 281 279 276 268 261 255 257 255 242 246 253 252 261
248 262 264 260 257 260 244 240 250 246 248 244 250 258 265 269 273 277 279 280 281 282 284 287 284 276 268 279 287 287 284 283 279 276 275 267 257 249 247 245 245 249 250 255
247 264 278 264 239 242 251 255 260 258 249 245 249 261 263 269 272 274 277 279 274 273 277 281 287 287 283 282 283 282 281 280 277 269 269 271 264 249 244 241 237 241 245 245
239 229 224 248 241 233 246 255 256 259 265 259 247 256 264 267 267 270 275 279 280 279 279 283 287 289 288 283 275 275 283 282 277 274 271 267 273 280 260 252 258 253 251 250
244 252 246 261 260 245 246 250 251 249 250 260 260 252 255 263 266 271 276 279 278 279 281 285 289 290 289 285 277 266 269 275 275 270 268 266 266 271 285 284 266 260 257 256
246 250 261 256 256 256 252 254 257 259 257 254 256 258 258 264 272 274 275 277 280 283 286 287 288 288 287 286 280 273 269 270 269 265 263 262 261 261 261 271 283 280 264 258
245 232 240 254 261 261 256 253 257 264 265 265 258 262 265 268 273 276 279 282 286 286 286 287 288 288 290 286 281 277 274 271 266 263 260 261 261 259 257 256 261 270 279 272
251 252 246 248 255 259 257 249 250 258 262 264 269 271 268 268 274 280 284 284 283 285 286 285 284 285 290 286 284 280 273 271 270 266 262 262 260 258 257 254 256 258 261 263
230 247 245 254 256 256 248 244 245 254 262 264 267 274 282 285 288 288 286 280 269 272 276 277 279 284 285 280 277 278 276 276 274 270 260 258 259 257 256 255 255 256 258 254
220 228 230 234 242 251 254 252 251 254 255 257 267 274 277 278 280 284 287 292 291 288 281 272 272 279 279 277 273 271 271 271 269 265 263 261 261 255 254 255 255 257 262 261
234 237 245 246 243 241 248 252 253 253 256 260 264 267 268 269 271 276 283 288 289 290 289 279 282 282 281 280 279 271 270 271 271 266 260 265 267 257 253 255 257 256 256 257
247 244 246 252 250 243 249 255 257 261 260 256 260 268 273 273 271 274 278 276 269 265 273 283 287 284 281 281 281 272 268 268 269 269 263 257 257 258 256 255 256 257 256 254
254 255 255 256 259 256 251 251 253 259 263 256 254 261 269 274 274 271 274 282 280 267 270 280 282 280 281 282 284 273 268 267 267 267 264 261 260 260 259 257 256 256 256 255
259 259 260 259 258 264 263 253 250 256 263 264 262 263 268 274 274 270 260 261 273 279 282 277 276 278 282 285 276 270 267 266 267 265 262 258 258 260 261 259 257 257 255 254
257 257 259 259 258 263 270 266 256 255 260 263 264 263 263 265 265 268 278 270 264 276 279 274 277 283 287 287 274 268 266 265 266 264 261 257 255 256 258 258 257 256 255 255
258 259 260 263 265 269 274 275 268 261 258 261 262 259 260 268 271 258 256 271 278 281 278 278 283 287 290 282 271 268 266 265 264 263 261 260 257 255 255 255 256 255 253 251
259 261 263 264 264 265 266 270 273 271 267 268 267 262 255 248 255 268 268 267 274 280 279 281 284 287 285 274 269 267 266 263 262 262 258 258 258 256 255 254 252 253 253 252
259 261 261 257 256 262 264 265 268 270 271 274 276 271 264 257 253 260 267 267 267 275 277 275 276 279 275 271 268 266 265 269 271 266 259 257 256 256 256 253 250 251 252 251
259 259 263 266 265 258 255 257 261 266 265 265 272 275 272 268 265 264 265 267 269 270 270 270 269 268 269 269 269 266 264 262 260 260 258 257 256 255 253 249 250 249 248 247
Height
1522 1520 1520 1518 1516 1518 1520 1518 1518 1510 1508 1498 1496 1495 1494 1493 1493 1493 1493 1492 1491 1491 1490 1489 1488 1487 1486 1485 1484 1483 1482 1481 1480 1479 1478 1477 1476 1475 1474 1473 1472 1471 1469 1468
1521 1517 1518 1516 1511 1512 1511 1510 1509 1506 1500 1492 1491 1491 1491 1490 1490 1490 1490 1490 1489 1488 1487 1486 1485 1484 1482 1481 1480 1479 1477 1476 1475 1474 1472 1471 1470 1469 1468 1467 1466 1465 1464 1463
1522 1519 1515 1510 1500 1501 1502 1499 1499 1498 1492 1489 1489 1489 1488 1488 1488 1487 1487 1487 1486 1485 1484 1483 1482 1480 1478 1477 1475 1474 1472 1471 1469 1468 1467 1465 1464 1463 1462 1461 1460 1459 1458 1457
1522 1519 1513 1494 1489 1491 1493 1491 1491 1488 1486 1486 1486 1485 1485 1485 1485 1485 1485 1484 1483 1482 1481 1480 1478 1476 1474 1472 1470 1469 1467 1465 1464 1462 1461 1460 1458 1457 1456 1455 1454 1453 1452 1451
1521 1518 1506 1493 1487 1488 1490 1487 1484 1484 1483 1483 1484 1484 1483 1482 1482 1483 1482 1481 1480 1479 1477 1475 1474 1472 1470 1467 1465 1463 1461 1459 1458 1457 1455 1453 1452 1451 1450 1449 1447 1446 1446 1445
1518 1512 1501 1487 1484 1483 1486 1486 1479 1479 1480 1481 1482 1486 1482 1480 1480 1479 1479 1478 1476 1474 1473 1471 1469 1467 1465 1462 1460 1458 1456 1454 1452 1451 1449 1447 1446 1445 1444 1442 1441 1440 1439 1439
1512 1508 1496 1484 1482 1484 1490 1482 1478 1477 1478 1479 1480 1480 1479 1478 1477 1476 1475 1473 1472 1470 1468 1466 1464 1462 1459 1457 1455 1453 1451 1448 1447 1445 1443 1442 1440 1439 1438 1436 1435 1434 1433 1432
1506 1505 1493 1480 1481 1483 1480 1477 1476 1476 1476 1476 1476 1476 1475 1474 1473 1472 1470 1469 1467 1465 1463 1461 1459 1457 1454 1452 1450 1447 1445 1443 1441 1439 1438 1436 1434 1433 1432 1430 1429 1428 1427 1426
1490 1484 1477 1476 1475 1475 1475 1475 1474 1474 1474 1474 1473 1472 1471 1470 1469 1467 1466 1464 1462 1460 1457 1456 1454 1452 1449 1446 1444 1441 1439 1437 1435 1433 1432 1430 1429 1427 1426 1424 1423 1421 1420 1419
1484 1477 1474 1473 1472 1472 1472 1472 1472 1471 1471 1470 1469 1468 1467 1465 1464 1462 1461 1459 1457 1454 1452 1450 1449 1446 1444 1441 1439 1436 1434 1431 1430 1428 1426 1425 1423 1421 1420 1418 1417 1415 1414 1413
1478 1472 1470 1468 1468 1468 1469 1468 1468 1467 1466 1465 1464 1463 1462 1460 1459 1457 1455 1454 1452 1449 1447 1445 1443 1441 1439 1436 1433 1431 1428 1426 1424 1422 1420 1418 1417 1415 1413 1412 1411 1410 1408 1408
1468 1465 1466 1463 1463 1464 1464 1463 1463 1462 1460 1460 1459 1457 1456 1455 1453 1452 1450 1448 1446 1444 1442 1440 1437 1435 1433 1431 1428 1425 1423 1421 1419 1417 1415 1412 1410 1408 1407 1406 1405 1404 1402 1402
1459 1460 1460 1458 1459 1459 1458 1457 1457 1456 1455 1454 1453 1452 1451 1449 1448 1447 1445 1443 1441 1439 1437 1435 1432 1430 1428 1425 1423 1420 1417 1415 1413 1411 1408 1406 1404 1402 1400 1399 1398 1397 1396 1395
1455 1456 1454 1453 1453 1453 1453 1452 1451 1450 1450 1449 1448 1447 1446 1444 1443 1442 1440 1438 1436 1434 1432 1430 1427 1425 1423 1420 1417 1414 1412 1409 1407 1405 1402 1400 1398 1396 1394 1392 1391 1389 1390 1389
1450 1450 1449 1448 1448 1447 1447 1446 1446 1445 1444 1443 1443 1442 1441 1439 1438 1437 1435 1433 1431 1429 1427 1425 1422 1420 1417 1414 1411 1408 1406 1403 1401 1398 1396 1394 1392 1390 1388 1387 1385 1384 1383 1382
1444 1444 1444 1443 1442 1442 1442 1441 1440 1440 1439 1438 1438 1437 1436 1435 1433 1432 1430 1428 1426 1423 1421 1419 1416 1414 1411 1408 1405 1402 1399 1397 1395 1392 1390 1388 1386 1384 1382 1381 1379 1378 1377 1376
1439 1438 1438 1438 1437 1437 1437 1437 1436 1436 1435 1434 1434 1433 1431 1430 1428 1426 1425 1423 1421 1418 1416 1414 1411 1408 1405 1402 1399 1396 1393 1390 1388 1386 1383 1382 1380 1378 1376 1375 1373 1372 1371 1371
1433 1434 1434 1433 1433 1433 1433 1433 1432 1432 1431 1430 1430 1428 1427 1425 1423 1421 1419 1417 1414 1412 1410 1408 1405 1402 1399 1396 1393 1389 1386 1384 1381 1379 1377 1375 1373 1372 1370 1368 1367 1366 1365 1364
1430 1430 1430 1430 1430 1429 1429 1428 1428 1428 1427 1426 1425 1423 1422 1420 1418 1416 1414 1411 1408 1405 1403 1401 1398 1395 1392 1389 1386 1383 1380 1377 1375 1372 1371 1369 1367 1365 1364 1362 1361 1360 1359 1358
1426 1426 1426 1426 1426 1426 1425 1424 1424 1423 1422 1421 1419 1418 1416 1414 1412 1410 1407 1404 1402 1399 1396 1394 1391 1388 1385 1382 1379 1376 1373 1371 1368 1366 1364 1362 1361 1359 1357 1356 1355 1353 1353 1352
1423 1423 1422 1422 1422 1421 1421 1420 1419 1417 1416 1415 1413 1411 1409 1407 1405 1403 1400 1396 1394 1392 1389 1386 1383 1381 1378 1375 1372 1369 1367 1364 1362 1359 1357 1356 1354 1352 1351 1350 1348 1347 1346 1346
1420 1419 1418 1418 1417 1416 1415 1414 1413 1411 1410 1408 1406 1404 1402 1399 1397 1395 1392 1390 1386 1384 1381 1378 1376 1373 1371 1368 1365 1362 1360 1357 1355 1353 1351 1349 1347 1346 1344 1343 1342 1341 1340 1340
1415 1415 1414 1413 1411 1410 1408 1407 1406 1404 1402 1401 1399 1397 1394 1392 1389 1387 1383 1381 1379 1376 1373 1371 1368 1366 1363 1360 1358 1355 1353 1350 1348 1346 1344 1343 1341 1339 1338 1337 1336 1335 1334 1334
1410 1409 1407 1406 1405 1403 1401 1399 1398 1396 1394 1392 1390 1388 1386 1383 1380 1378 1376 1373 1371 1368 1365 1363 1360 1358 1355 1353 1350 1348 1346 1343 1341 1339 1338 1336 1334 1333 1332 1331 1330 1329 1329 1328
1403 1401 1400 1398 1397 1395 1393 1391 1389 1387 1386 1383 1381 1379 1378 1375 1373 1370 1368 1365 1363 1360 1357 1355 1353 1350 1348 1345 1343 1341 1339 1337 1335 1333 1331 1330 1328 1327 1326 1325 1324 1324 1323 1323
1395 1393 1392 1390 1388 1387 1385 1383 1381 1378 1376 1374 1371 1370 1368 1366 1364 1361 1359 1357 1355 1352 1350 1347 1345 1343 1341 1338 1336 1334 1332 1330 1328 1326 1325 1324 1322 1321 1320 1320 1319 1318 1318 1317
1386 1385 1383 1381 1379 1378 1376 1374 1372 1370 1368 1366 1363 1361 1360 1358 1356 1353 1351 1349 1347 1344 1342 1340 1338 1335 1333 1331 1329 1327 1325 1323 1322 1320 1319 1318 1317 1316 1315 1314 1314 1313 1313 1312